Regional Weather Roundup
Issued by NWS Albany, NY

Home | Current Version | Previous Version | Text Only | Print | Product List | Glossary On
Versions: 1 2 3 4 5 6 7 8 9 10 11 12 13 14 15 16 17 18 19 20 21 22 23 24 25 26 27 28 29 30 31 32 33 34 35 36 37 38 39 40 41 42 43 44 45 46
000
ASUS41 KALY 271310
RWRALY

NEW YORK STATE HOURLY WEATHER ROUNDUP
NATIONAL WEATHER SERVICE ALBANY NY
900 AM EDT THU AUG 27 2015

NOTE: "FAIR" INDICATES FEW OR NO CLOUDS BELOW 12,000 FEET WITH NO
SIGNIFICANT WEATHER AND/OR NO OBSTRUCTIONS TO VISIBILITY.

NYZ032-033-038>043-046>054-057>066-NYZ062>081-271400-
EAST


CITY           SKY/WX    TMP DP  RH WIND       PRES   REMARKS
ALBANY         PTSUNNY   67  56  67 W9        30.06R
GLENS FALLS    CLOUDY    67  57  70 VRB6      30.03R
POUGHKEEPSIE   SUNNY     67  58  72 CALM      30.06R
NEWBURGH       SUNNY     68  59  73 W9        30.08R
MONTGOMERY     SUNNY     68  56  65 W9        30.07R
WHITE PLAINS   SUNNY     70  56  61 NW7       30.05S
ISLIP          MOSUNNY   72  59  63 VRB5      30.04R
NEW YORK CITY  MOSUNNY   71  55  56 NW12      30.06R
CENTRAL PARK   SUNNY     71  53  52 CALM      30.09R
$$

NYZ005>009-017-018-044>046-055-056-271400-
CENTRAL


CITY           SKY/WX    TMP DP  RH WIND       PRES   REMARKS
FULTON         HVY RAIN  60  57  89 W8        30.09R FOG
SYRACUSE       LGT RAIN  59  58  96 SW9       30.09S FOG
ROME           CLOUDY    60  59  96 W9        30.09S
ELMIRA         SUNNY     62  55  77 W6        30.12S
BINGHAMTON     CLOUDY    58  51  78 NW9       30.11S
MONTICELLO     CLOUDY    61  55  82 W9        30.12R
$$

NYZ026>034-041>043-271400-
NORTH


CITY           SKY/WX    TMP DP  RH WIND       PRES   REMARKS
WATERTOWN      CLOUDY    63  55  75 N8        30.07R
FORT DRUM      NOT AVBL
MASSENA        MOSUNNY   63  54  72 SW8       30.05R
SARANAC LAKE   LGT RAIN  55  53  93 W7G18     30.04S FOG
PLATTSBURGH    CLOUDY    65  56  72 NW5       30.02R
$$

NYZ001>004-010>016-019>021-271400-
WEST


CITY           SKY/WX    TMP DP  RH WIND       PRES   REMARKS
NIAGARA FALLS  CLOUDY    60  53  77 NW12      30.13R
BUFFALO        PTSUNNY   60  54  80 W7        30.14R
DUNKIRK        CLOUDY    63  56  78 NW8       30.15R
JAMESTOWN      CLOUDY    57  54  88 NW6       30.16S
WELLSVILLE     CLOUDY    57  53  86 W9        30.17R
ROCHESTER      CLOUDY    61  54  77 W9        30.12R
PENN YAN       PTSUNNY   62  52  69 W8        30.13R
$$

             KEY
       WCI = WIND CHILL INDEX
       VSB = VISIBILITY
       HX  = HEAT INDEX
$$


USA.gov is the U.S. government's official web portal to all federal, state and local government web resources and services.